#timestamp,LO_Frequency,Hit,StdDev 
1584686635.6,286046992.3,P
1584686655.5,286046994.4,P
1584686675.3,286046991.7,P
1584686695.1,286046992.6,Y
1584686715.9,286046998.8,P
1584686735.7,286046999.0,N
1584686755.6,286047000.7,N
1584686775.4,286047000.5,N
1584686795.2,286046998.7,N
1584686815.1,286046999.0,N
1584686816.0,286046999.0,N
1584686835.8,286047001.0,N
1584686855.6,286047000.9,N
1584686875.5,286047000.3,N
1584686895.3,286047000.3,N
1584686915.2,286047001.2,N
1584686935.9,286046998.6,N
1584686955.7,286046998.3,N
1584686975.6,286046998.7,N
1584686995.4,286046999.1,N
1584687015.2,286046998.3,N
1584687035.1,286046999.3,N
1584687036.0,286046999.3,N
1584687055.8,286046999.1,N
1584687075.7,286046997.9,N
1584687095.5,286046997.8,N
1584687115.3,286046995.1,N
1584687135.2,286046995.2,N
1584687155.0,286046995.4,N
1584687155.9,286046995.4,N
1584687175.7,286046995.6,N
1584687195.6,286046995.8,N
1584687215.4,286046996.3,N
1584687235.3,286046993.7,Y
1584687255.1,286046997.7,P
1584687256.0,286046997.7,P
1584687275.8,286046998.3,P
1584687295.7,286047001.1,Y
1584687315.5,286047000.0,P
1584687335.4,286047001.1,N
1584687355.2,286046998.5,N
1584687375.0,286046999.6,N
1584687375.9,286046999.6,N
1584687395.8,286046996.9,Y
1584687415.6,286046999.2,P
1584687435.4,286046997.2,P
1584687455.3,286046997.2,N
1584687475.1,286046998.8,N
1584687495.9,286046998.4,N
1584687515.7,286046998.6,N
1584687535.5,286046998.9,N
1584687555.4,286046996.8,Y
1584687575.2,286046998.2,P
1584687595.1,286047000.7,P
1584687596.0,286047000.7,N
